Location: Tr�vern
(48.0333°N, 4.6000°W)
Time: 19:06:35
(UTC+00:00)

H-2A R/B - Pass Details

Date: 14 July 2020
Orbit: 577 x 656 km, 98.5° (Epoch: 12 August)

Event Time Altitude Azimuth Distance (km) Brightness Sun altitude
Rises 03:40:16 0° 166° (SSE) 2,927 5.2 -7.7°
Reaches altitude 10° 03:42:29 10° 168° (SSE) 2,012 4.4 -7.4°
Maximum altitude 03:46:52 81° 256° (WSW) 637 2.1 -6.9°
Drops below altitude 10° 03:51:11 10° 344° (NNW) 1,979 5.0 -6.4°
Sets 03:53:21 0° 345° (NNW) 2,875 5.9 -6.1°
